Time,TemperatureF,DewpointF,PressureIn,WindDirection,WindDirectionDegrees,WindSpeedMPH,WindSpeedGustMPH,Humidity,HourlyPrecipIn,Conditions,Clouds,dailyrainin,SoftwareType,DateUTC
2013-03-01 00:02:00,61.0,-99.9,29.97,NW,323,18.0,20.0,-999,-99.99,,,-99.99,,2013-03-01 05:02:00,
2013-03-01 00:11:00,61.0,-99.9,29.97,NNW,330,18.0,20.0,-999,-99.99,,,-99.99,,2013-03-01 05:11:00,
2013-03-01 00:22:00,61.0,-99.9,29.96,NNW,334,15.0,20.0,-999,-99.99,,,-99.99,,2013-03-01 05:22:00,
2013-03-01 00:33:00,61.0,-99.9,29.96,NW,326,19.0,21.0,-999,-99.99,,,-99.99,,2013-03-01 05:33:00,
2013-03-01 00:42:00,61.0,-99.9,29.96,NNW,331,18.0,21.0,-999,-99.99,,,-99.99,,2013-03-01 05:42:00,
2013-03-01 00:53:00,61.0,-99.9,29.96,NW,324,18.0,21.0,-999,-99.99,,,-99.99,,2013-03-01 05:53:00,
2013-03-01 01:02:00,61.0,-99.9,29.96,NNW,331,17.0,22.0,-999,-99.99,,,-99.99,,2013-03-01 06:02:00,
2013-03-01 01:12:00,61.0,-99.9,29.96,NNW,332,17.0,23.0,-999,-99.99,,,-99.99,,2013-03-01 06:12:00,
2013-03-01 01:22:00,61.0,-99.9,29.96,NNW,335,18.0,22.0,-999,-99.99,,,-99.99,,2013-03-01 06:22:00,
2013-03-01 01:32:00,61.0,-99.9,29.96,NNW,330,20.0,24.0,-999,-99.99,,,-99.99,,2013-03-01 06:32:00,
2013-03-01 01:43:00,61.0,-99.9,29.96,NNW,331,21.0,24.0,-999,-99.99,,,-99.99,,2013-03-01 06:43:00,
2013-03-01 01:53:00,61.0,-99.9,29.97,NNW,331,18.0,23.0,-999,-99.99,,,-99.99,,2013-03-01 06:53:00,
2013-03-01 02:02:00,61.0,-99.9,29.96,NNW,344,19.0,26.0,-999,-99.99,,,-99.99,,2013-03-01 07:02:00,
2013-03-01 02:12:00,61.0,-99.9,29.96,NNW,337,16.0,21.0,-999,-99.99,,,-99.99,,2013-03-01 07:12:00,
2013-03-01 02:22:00,61.0,-99.9,29.95,NNW,345,18.0,24.0,-999,-99.99,,,-99.99,,2013-03-01 07:22:00,
2013-03-01 02:33:00,61.0,-99.9,29.95,NNW,337,17.0,22.0,-999,-99.99,,,-99.99,,2013-03-01 07:33:00,
2013-03-01 02:42:00,61.0,-99.9,29.96,NNW,338,16.0,20.0,-999,-99.99,,,-99.99,,2013-03-01 07:42:00,
2013-03-01 02:52:00,61.0,-99.9,29.95,NNW,347,18.0,24.0,-999,-99.99,,,-99.99,,2013-03-01 07:52:00,
2013-03-01 03:02:00,61.0,-99.9,29.94,North,352,19.0,24.0,-999,-99.99,,,-99.99,,2013-03-01 08:02:00,
2013-03-01 03:12:00,61.0,-99.9,29.94,North,352,20.0,25.0,-999,-99.99,,,-99.99,,2013-03-01 08:12:00,
2013-03-01 03:22:00,60.0,-99.9,29.94,NNW,348,20.0,23.0,-999,-99.99,,,-99.99,,2013-03-01 08:22:00,
2013-03-01 03:33:00,61.0,-99.9,29.93,NNW,346,18.0,22.0,-999,-99.99,,,-99.99,,2013-03-01 08:33:00,
2013-03-01 03:43:00,60.0,-99.9,29.93,North,356,19.0,23.0,-999,-99.99,,,-99.99,,2013-03-01 08:43:00,
2013-03-01 03:53:00,60.0,-99.9,29.93,NNW,345,17.0,22.0,-999,-99.99,,,-99.99,,2013-03-01 08:53:00,
2013-03-01 04:02:00,60.0,-99.9,29.93,NNW,347,16.0,21.0,-999,-99.99,,,-99.99,,2013-03-01 09:02:00,
2013-03-01 04:12:00,60.0,-99.9,29.93,North,357,18.0,20.0,-999,-99.99,,,-99.99,,2013-03-01 09:12:00,
2013-03-01 04:22:00,60.0,-99.9,29.93,NNW,346,14.0,20.0,-999,-99.99,,,-99.99,,2013-03-01 09:22:00,
2013-03-01 04:32:00,60.0,-99.9,29.93,NNW,344,14.0,18.0,-999,-99.99,,,-99.99,,2013-03-01 09:32:00,
2013-03-01 04:42:00,60.0,-99.9,29.93,North,355,14.0,17.0,-999,-99.99,,,-99.99,,2013-03-01 09:42:00,
2013-03-01 04:53:00,60.0,-99.9,29.93,North,355,16.0,21.0,-999,-99.99,,,-99.99,,2013-03-01 09:53:00,
2013-03-01 05:02:00,60.0,-99.9,29.93,North,2,15.0,19.0,-999,-99.99,,,-99.99,,2013-03-01 10:02:00,
2013-03-01 05:12:00,60.0,-99.9,29.93,North,354,15.0,19.0,-999,-99.99,,,-99.99,,2013-03-01 10:12:00,
2013-03-01 05:22:00,60.0,-99.9,29.93,North,353,15.0,19.0,-999,-99.99,,,-99.99,,2013-03-01 10:22:00,
2013-03-01 05:32:00,60.0,-99.9,29.93,North,5,18.0,20.0,-999,-99.99,,,-99.99,,2013-03-01 10:32:00,
2013-03-01 05:43:00,60.0,-99.9,29.94,North,356,17.0,21.0,-999,-99.99,,,-99.99,,2013-03-01 10:43:00,
2013-03-01 05:53:00,60.0,-99.9,29.94,North,8,16.0,21.0,-999,-99.99,,,-99.99,,2013-03-01 10:53:00,
2013-03-01 06:02:00,60.0,-99.9,29.95,North,6,20.0,23.0,-999,-99.99,,,-99.99,,2013-03-01 11:02:00,
2013-03-01 06:12:00,60.0,-99.9,29.95,NNE,16,19.0,24.0,-999,-99.99,,,-99.99,,2013-03-01 11:12:00,
2013-03-01 06:23:00,60.0,-99.9,29.95,North,359,20.0,22.0,-999,-99.99,,,-99.99,,2013-03-01 11:23:00,
2013-03-01 06:32:00,60.0,-99.9,29.96,NNE,17,19.0,24.0,-999,-99.99,,,-99.99,,2013-03-01 11:32:00,
2013-03-01 06:42:00,60.0,-99.9,29.96,North,10,19.0,22.0,-999,-99.99,,,-99.99,,2013-03-01 11:42:00,
2013-03-01 06:53:00,56.0,-99.9,29.96,NE,50,10.0,22.0,-999,-99.99,,,-99.99,,2013-03-01 11:53:00,
2013-03-01 07:02:00,56.0,-99.9,29.96,ENE,78,9.0,11.0,-999,-99.99,,,-99.99,,2013-03-01 12:02:00,
2013-03-01 07:11:00,55.0,-99.9,29.96,ENE,78,9.0,11.0,-999,-99.99,,,-99.99,,2013-03-01 12:11:00,
2013-03-01 07:22:00,55.0,-99.9,29.97,ENE,73,9.0,15.0,-999,-99.99,,,-99.99,,2013-03-01 12:22:00,
2013-03-01 07:33:00,54.0,-99.9,29.97,ENE,66,10.0,13.0,-999,-99.99,,,-99.99,,2013-03-01 12:33:00,
2013-03-01 07:42:00,54.0,-99.9,29.97,ENE,77,11.0,14.0,-999,-99.99,,,-99.99,,2013-03-01 12:42:00,
2013-03-01 07:52:00,53.0,-99.9,29.98,East,89,8.0,11.0,-999,-99.99,,,-99.99,,2013-03-01 12:52:00,
2013-03-01 08:01:00,54.0,-99.9,29.99,East,84,7.0,9.0,-999,-99.99,,,-99.99,,2013-03-01 13:01:00,
2013-03-01 08:12:00,54.0,-99.9,29.99,ENE,77,7.0,10.0,-999,-99.99,,,-99.99,,2013-03-01 13:12:00,
2013-03-01 08:22:00,54.0,-99.9,29.99,East,93,8.0,11.0,-999,-99.99,,,-99.99,,2013-03-01 13:22:00,
2013-03-01 08:32:00,54.0,-99.9,29.99,ENE,75,10.0,12.0,-999,-99.99,,,-99.99,,2013-03-01 13:32:00,
2013-03-01 08:42:00,54.0,-99.9,29.99,ENE,71,10.0,13.0,-999,-99.99,,,-99.99,,2013-03-01 13:42:00,
2013-03-01 08:52:00,54.0,-99.9,30.00,ENE,76,10.0,15.0,-999,-99.99,,,-99.99,,2013-03-01 13:52:00,
2013-03-01 09:02:00,55.0,-99.9,30.00,ENE,72,10.0,13.0,-999,-99.99,,,-99.99,,2013-03-01 14:02:00,
2013-03-01 09:12:00,55.0,-99.9,30.01,ENE,64,8.0,11.0,-999,-99.99,,,-99.99,,2013-03-01 14:12:00,
2013-03-01 09:22:00,55.0,-99.9,30.01,ENE,60,8.0,12.0,-999,-99.99,,,-99.99,,2013-03-01 14:22:00,
2013-03-01 09:32:00,55.0,-99.9,30.01,NE,52,9.0,13.0,-999,-99.99,,,-99.99,,2013-03-01 14:32:00,
2013-03-01 09:42:00,55.0,-99.9,30.01,ENE,58,9.0,13.0,-999,-99.99,,,-99.99,,2013-03-01 14:42:00,
2013-03-01 09:52:00,55.0,-99.9,30.01,NE,46,12.0,14.0,-999,-99.99,,,-99.99,,2013-03-01 14:52:00,
2013-03-01 10:02:00,55.0,-99.9,30.01,NE,47,11.0,13.0,-999,-99.99,,,-99.99,,2013-03-01 15:02:00,
2013-03-01 10:11:00,55.0,-99.9,30.01,NE,39,12.0,14.0,-999,-99.99,,,-99.99,,2013-03-01 15:11:00,
2013-03-01 10:21:00,55.0,-99.9,30.01,ENE,62,10.0,13.0,-999,-99.99,,,-99.99,,2013-03-01 15:21:00,
2013-03-01 10:32:00,55.0,-99.9,30.01,ENE,57,7.0,13.0,-999,-99.99,,,-99.99,,2013-03-01 15:32:00,
2013-03-01 10:42:00,55.0,-99.9,30.02,NE,53,8.0,11.0,-999,-99.99,,,-99.99,,2013-03-01 15:42:00,
2013-03-01 10:52:00,55.0,-99.9,30.03,ENE,61,9.0,13.0,-999,-99.99,,,-99.99,,2013-03-01 15:52:00,
2013-03-01 11:01:00,56.0,-99.9,30.03,NNE,32,10.0,15.0,-999,-99.99,,,-99.99,,2013-03-01 16:01:00,
2013-03-01 11:11:00,56.0,-99.9,30.03,NNE,32,10.0,15.0,-999,-99.99,,,-99.99,,2013-03-01 16:11:00,
2013-03-01 11:22:00,56.0,-99.9,30.03,NNE,17,14.0,18.0,-999,-99.99,,,-99.99,,2013-03-01 16:22:00,
2013-03-01 11:32:00,56.0,-99.9,30.03,North,3,14.0,17.0,-999,-99.99,,,-99.99,,2013-03-01 16:32:00,
2013-03-01 11:42:00,56.0,-99.9,30.03,North,3,14.0,17.0,-999,-99.99,,,-99.99,,2013-03-01 16:42:00,
2013-03-01 11:52:00,56.0,-99.9,30.03,North,358,16.0,21.0,-999,-99.99,,,-99.99,,2013-03-01 16:52:00,
2013-03-01 12:01:00,56.0,-99.9,30.03,North,358,16.0,21.0,-999,-99.99,,,-99.99,,2013-03-01 17:01:00,
2013-03-01 12:11:00,56.0,-99.9,30.03,North,358,16.0,21.0,-999,-99.99,,,-99.99,,2013-03-01 17:11:00,
2013-03-01 12:21:00,56.0,-99.9,30.02,North,350,15.0,20.0,-999,-99.99,,,-99.99,,2013-03-01 17:21:00,
2013-03-01 12:32:00,56.0,-99.9,30.01,North,355,15.0,19.0,-999,-99.99,,,-99.99,,2013-03-01 17:32:00,
2013-03-01 12:42:00,56.0,-99.9,30.01,North,359,17.0,21.0,-999,-99.99,,,-99.99,,2013-03-01 17:42:00,
2013-03-01 12:52:00,56.0,-99.9,30.01,North,7,16.0,19.0,-999,-99.99,,,-99.99,,2013-03-01 17:52:00,
2013-03-01 13:02:00,56.0,-99.9,30.01,North,359,14.0,17.0,-999,-99.99,,,-99.99,,2013-03-01 18:02:00,
2013-03-01 13:12:00,56.0,-99.9,30.01,North,6,11.0,19.0,-999,-99.99,,,-99.99,,2013-03-01 18:12:00,
2013-03-01 13:22:00,56.0,-99.9,30.00,North,8,14.0,18.0,-999,-99.99,,,-99.99,,2013-03-01 18:22:00,
2013-03-01 13:32:00,56.0,-99.9,30.00,North,8,14.0,18.0,-999,-99.99,,,-99.99,,2013-03-01 18:32:00,
2013-03-01 13:42:00,56.0,-99.9,29.99,North,360,13.0,18.0,-999,-99.99,,,-99.99,,2013-03-01 18:42:00,
2013-03-01 13:52:00,56.0,-99.9,29.98,NNW,339,12.0,17.0,-999,-99.99,,,-99.99,,2013-03-01 18:52:00,
2013-03-01 14:02:00,56.0,-99.9,29.98,North,359,15.0,21.0,-999,-99.99,,,-99.99,,2013-03-01 19:02:00,
2013-03-01 14:11:00,56.0,-99.9,29.98,North,359,15.0,21.0,-999,-99.99,,,-99.99,,2013-03-01 19:11:00,
2013-03-01 14:22:00,56.0,-99.9,29.98,NNW,348,14.0,20.0,-999,-99.99,,,-99.99,,2013-03-01 19:22:00,
2013-03-01 14:32:00,56.0,-99.9,29.98,NNW,344,15.0,21.0,-999,-99.99,,,-99.99,,2013-03-01 19:32:00,
2013-03-01 14:42:00,56.0,-99.9,29.98,NNW,344,15.0,21.0,-999,-99.99,,,-99.99,,2013-03-01 19:42:00,
2013-03-01 14:52:00,56.0,-99.9,29.97,North,356,16.0,19.0,-999,-99.99,,,-99.99,,2013-03-01 19:52:00,
2013-03-01 15:01:00,56.0,-99.9,29.97,North,355,15.0,19.0,-999,-99.99,,,-99.99,,2013-03-01 20:01:00,
2013-03-01 15:11:00,56.0,-99.9,29.97,NNW,344,14.0,20.0,-999,-99.99,,,-99.99,,2013-03-01 20:11:00,
2013-03-01 15:22:00,56.0,-99.9,29.98,North,355,14.0,19.0,-999,-99.99,,,-99.99,,2013-03-01 20:22:00,
2013-03-01 15:32:00,56.0,-99.9,29.98,NNW,336,14.0,22.0,-999,-99.99,,,-99.99,,2013-03-01 20:32:00,
2013-03-01 15:42:00,56.0,-99.9,29.98,NNW,339,16.0,21.0,-999,-99.99,,,-99.99,,2013-03-01 20:42:00,
2013-03-01 15:52:00,56.0,-99.9,29.98,NNW,339,15.0,20.0,-999,-99.99,,,-99.99,,2013-03-01 20:52:00,
2013-03-01 16:02:00,56.0,-99.9,29.98,NNW,327,16.0,19.0,-999,-99.99,,,-99.99,,2013-03-01 21:02:00,
2013-03-01 16:11:00,56.0,-99.9,29.98,NNW,343,14.0,18.0,-999,-99.99,,,-99.99,,2013-03-01 21:11:00,
2013-03-01 16:22:00,56.0,-99.9,29.98,NNW,335,12.0,17.0,-999,-99.99,,,-99.99,,2013-03-01 21:22:00,
2013-03-01 16:32:00,56.0,-99.9,29.98,NW,321,14.0,18.0,-999,-99.99,,,-99.99,,2013-03-01 21:32:00,
2013-03-01 16:42:00,56.0,-99.9,29.98,North,349,12.0,18.0,-999,-99.99,,,-99.99,,2013-03-01 21:42:00,
2013-03-01 16:52:00,56.0,-99.9,29.97,NNW,329,13.0,18.0,-999,-99.99,,,-99.99,,2013-03-01 21:52:00,
2013-03-01 17:01:00,56.0,-99.9,29.98,NNW,344,12.0,17.0,-999,-99.99,,,-99.99,,2013-03-01 22:01:00,
2013-03-01 17:12:00,56.0,-99.9,29.98,NNW,346,12.0,19.0,-999,-99.99,,,-99.99,,2013-03-01 22:12:00,
2013-03-01 17:22:00,56.0,-99.9,29.98,NW,326,13.0,18.0,-999,-99.99,,,-99.99,,2013-03-01 22:22:00,
2013-03-01 17:32:00,56.0,-99.9,29.98,North,354,13.0,17.0,-999,-99.99,,,-99.99,,2013-03-01 22:32:00,
2013-03-01 17:42:00,56.0,-99.9,29.98,North,349,12.0,15.0,-999,-99.99,,,-99.99,,2013-03-01 22:42:00,
2013-03-01 17:52:00,56.0,-99.9,29.98,NNW,335,11.0,17.0,-999,-99.99,,,-99.99,,2013-03-01 22:52:00,
2013-03-01 18:01:00,56.0,-99.9,29.98,NNW,346,12.0,15.0,-999,-99.99,,,-99.99,,2013-03-01 23:01:00,
2013-03-01 18:11:00,56.0,-99.9,29.98,North,351,12.0,17.0,-999,-99.99,,,-99.99,,2013-03-01 23:11:00,
2013-03-01 18:21:00,56.0,-99.9,29.98,NNW,344,9.0,16.0,-999,-99.99,,,-99.99,,2013-03-01 23:21:00,
2013-03-01 18:32:00,56.0,-99.9,29.99,NNW,332,14.0,18.0,-999,-99.99,,,-99.99,,2013-03-01 23:32:00,
2013-03-01 18:42:00,56.0,-99.9,29.99,NNW,337,12.0,16.0,-999,-99.99,,,-99.99,,2013-03-01 23:42:00,
2013-03-01 18:52:00,56.0,-99.9,29.99,NNW,330,15.0,19.0,-999,-99.99,,,-99.99,,2013-03-01 23:52:00,
2013-03-01 19:02:00,56.0,-99.9,30.00,NNW,336,13.0,19.0,-999,-99.99,,,-99.99,,2013-03-02 00:02:00,
2013-03-01 19:12:00,56.0,-99.9,30.00,NNW,331,15.0,21.0,-999,-99.99,,,-99.99,,2013-03-02 00:12:00,
2013-03-01 19:22:00,56.0,-99.9,30.01,NNW,339,11.0,20.0,-999,-99.99,,,-99.99,,2013-03-02 00:22:00,
2013-03-01 19:32:00,56.0,-99.9,30.01,NNW,327,17.0,25.0,-999,-99.99,,,-99.99,,2013-03-02 00:32:00,
2013-03-01 19:42:00,56.0,-99.9,30.01,NNW,335,14.0,24.0,-999,-99.99,,,-99.99,,2013-03-02 00:42:00,
2013-03-01 19:52:00,56.0,-99.9,30.01,NNW,330,16.0,23.0,-999,-99.99,,,-99.99,,2013-03-02 00:52:00,
2013-03-01 20:01:00,56.0,-99.9,30.01,NNW,336,17.0,22.0,-999,-99.99,,,-99.99,,2013-03-02 01:01:00,
2013-03-01 20:11:00,56.0,-99.9,30.01,NNW,330,18.0,22.0,-999,-99.99,,,-99.99,,2013-03-02 01:11:00,
2013-03-01 20:21:00,57.0,-99.9,30.01,NNW,337,15.0,21.0,-999,-99.99,,,-99.99,,2013-03-02 01:21:00,
2013-03-01 20:32:00,56.0,-99.9,30.01,NNW,329,21.0,26.0,-999,-99.99,,,-99.99,,2013-03-02 01:32:00,
2013-03-01 20:42:00,56.0,-99.9,30.01,NNW,330,20.0,23.0,-999,-99.99,,,-99.99,,2013-03-02 01:42:00,
2013-03-01 20:52:00,56.0,-99.9,30.01,NNW,333,17.0,24.0,-999,-99.99,,,-99.99,,2013-03-02 01:52:00,
2013-03-01 21:01:00,56.0,-99.9,30.01,NNW,332,22.0,26.0,-999,-99.99,,,-99.99,,2013-03-02 02:01:00,
2013-03-01 21:11:00,56.0,-99.9,30.01,NNW,330,23.0,28.0,-999,-99.99,,,-99.99,,2013-03-02 02:11:00,
2013-03-01 21:22:00,56.0,-99.9,30.02,NNW,338,18.0,26.0,-999,-99.99,,,-99.99,,2013-03-02 02:22:00,
2013-03-01 21:32:00,56.0,-99.9,30.02,NNW,347,21.0,28.0,-999,-99.99,,,-99.99,,2013-03-02 02:32:00,
2013-03-01 21:42:00,56.0,-99.9,30.03,NNW,337,19.0,25.0,-999,-99.99,,,-99.99,,2013-03-02 02:42:00,
2013-03-01 21:52:00,56.0,-99.9,30.03,NNW,332,19.0,24.0,-999,-99.99,,,-99.99,,2013-03-02 02:52:00,
2013-03-01 22:02:00,56.0,-99.9,30.03,NNW,342,19.0,26.0,-999,-99.99,,,-99.99,,2013-03-02 03:02:00,
2013-03-01 22:11:00,56.0,-99.9,30.03,NNW,334,15.0,23.0,-999,-99.99,,,-99.99,,2013-03-02 03:11:00,
2013-03-01 22:22:00,56.0,-99.9,30.03,NNW,338,13.0,23.0,-999,-99.99,,,-99.99,,2013-03-02 03:22:00,
2013-03-01 22:32:00,56.0,-99.9,30.03,NNW,338,17.0,22.0,-999,-99.99,,,-99.99,,2013-03-02 03:32:00,
2013-03-01 22:42:00,56.0,-99.9,30.02,NNW,337,17.0,21.0,-999,-99.99,,,-99.99,,2013-03-02 03:42:00,
2013-03-01 22:53:00,56.0,-99.9,30.03,NNW,340,19.0,25.0,-999,-99.99,,,-99.99,,2013-03-02 03:53:00,
2013-03-01 23:02:00,56.0,-99.9,30.03,NNW,336,14.0,23.0,-999,-99.99,,,-99.99,,2013-03-02 04:02:00,
2013-03-01 23:12:00,56.0,-99.9,30.03,NNW,343,18.0,25.0,-999,-99.99,,,-99.99,,2013-03-02 04:12:00,
2013-03-01 23:22:00,56.0,-99.9,30.04,NNW,340,15.0,20.0,-999,-99.99,,,-99.99,,2013-03-02 04:22:00,
2013-03-01 23:32:00,56.0,-99.9,30.04,NNW,334,19.0,26.0,-999,-99.99,,,-99.99,,2013-03-02 04:32:00,
2013-03-01 23:42:00,56.0,-99.9,30.04,NNW,331,20.0,26.0,-999,-99.99,,,-99.99,,2013-03-02 04:42:00,
2013-03-01 23:52:00,56.0,-99.9,30.04,NNW,337,17.0,23.0,-999,-99.99,,,-99.99,,2013-03-02 04:52:00,